Regional Weather Roundup
Issued by NWS Wakefield, VA

Home | Current Version | Previous Version | Text Only | Print | Product List | Glossary On
Versions: 1 2 3 4 5 6 7 8 9 10 11 12 13 14 15 16 17 18 19 20 21 22 23 24 25 26 27 28 29 30 31 32 33 34 35 36 37 38 39 40 41 42 43 44 45 46 47 48 49 50
000
ASUS41 KAKQ 251010
RWRAKQ

REGIONAL WEATHER ROUNDUP
NATIONAL WEATHER SERVICE WAKEFIELD VA
500 AM EST SUN JAN 25 2015

Note: "fair" indicates few or no clouds below 12,000 feet with no
significant weather and/or obstructions to visibility. * = Denotes
station may not report precipitation (e.g., rain,snow,etc.),
thunder or fog.

VAZ042-051-052>054-056-251100-
NORTHERN VIRGINIA

CITY           SKY/WX    TMP DP  RH WIND       PRES   REMARKS
WASH NATIONAL  PTCLDY    38  27  64 S9        29.78R
DULLES         FAIR      35  26  69 S5        29.77R
FORT BELVOIR   PTCLDY    36  27  68 SW5       29.79R
QUANTICO       MOCLDY    37  26  64 SW6       29.81R
FREDERICKSBRG* CLOUDY    36  29  78 SW7       29.81R
STAFFORD*      MOCLDY    33  31  93 CALM      29.84R
WARRENTON      CLOUDY    38  32  80 S5        29.78R
CULPEPER*      CLOUDY    36  28  75 CALM      29.79R
MANASSAS*      CLOUDY    37  28  70 S5        29.78R
LEESBURG*      CLOUDY    37  30  75 W8        29.77R
WINCHESTER     CLOUDY    37  25  60 SW6       29.75R
FRONT ROYAL*   CLOUDY    37  28  70 S3        29.75R
LURAY*         CLOUDY    39  30  70 SW9       29.76R
$$

VAZ048-049-060>072-079>083-251100-
CENTRAL AND SOUTH CENTRAL VIRGINIA

CITY           SKY/WX    TMP DP  RH WIND       PRES   REMARKS
RICHMOND       PTCLDY    34  27  75 W7        29.83R
CHESTERFIELD*  FAIR      34  18  51 SW5       29.85R
PETERSBURG*    CLEAR     32  28  84 SW6       29.85R
HANOVER        CLEAR     32  26  78 SW5       29.84R
TAPPAHANNOCK*  CLEAR     33  25  72 SW3       29.83R
QUINTON*       FAIR      31  26  82 W3        29.83R
CHARLOTTSVILLE PTCLDY    37  25  61 SW5       29.79R
GORDONSVILLE*  FAIR      28  26  91 CALM      29.80R
ORANGE*        CLOUDY    34  30  86 CALM      29.81R
LOUISA*        PTCLDY    34  27  75 CALM      29.80R
BUMPASS*       FAIR      29  26  87 CALM      29.81R
FARMVILLE*     MOCLDY    32  27  81 CALM      29.83R
CREWE*         FAIR      33  27  80 W3        29.83S
FORT PICKETT*  FAIR      32  27  83 W6        29.84R
CHASE CITY*    FAIR      36  31  82 W7        29.85R
CLARKSVILLE*   FAIR      34  28  80 W5        29.85R
SOUTH HILL*    CLEAR     26  24  94 SW6       29.91S
LAWRENCEVILLE* FAIR      31  27  86 CALM      29.84S
EMPORIA*       CLEAR     32  28  86 CALM      29.87R
$$

VAZ088>098-251100-
SOUTHEAST VIRGINIA

CITY           SKY/WX    TMP DP  RH WIND       PRES   REMARKS
NORFOLK        CLEAR     36  27  69 W7        29.82R
VIRGINIA BEACH CLEAR     36  28  73 W8        29.82R
NORFOLK NAVAL  CLEAR     38  28  67 W8        29.84R
WEST POINT*    CLEAR     34  28  77 W3        29.85R
SALUDA*        FAIR      33  27  77 W7        29.82R
NEWPORT NEWS   CLEAR     37  28  70 W7        29.83R
LANGLEY AFB    CLEAR     34  28  77 W9        29.83R
FORT EUSTIS    CLEAR     35  29  81 NW2       29.82R
WILLIAMSBURG*    N/A    N/A N/A N/A MISG      29.83R
HR EXEC AP*    FAIR      30  27  86 CALM      29.86R
FRANKLIN*      CLEAR     33  28  80 W5        29.85S
WAKEFIELD      CLEAR     34  26  72 W3        29.84R
$$

VAZ020-022-025-037-045-251100-
WEST CENTRAL AND SOUTHWEST VIRGINIA

CITY           SKY/WX    TMP DP  RH WIND       PRES   REMARKS
STAUNTON*      CLOUDY    37  26  64 S7        29.79R
WAYNESBORO*    CLOUDY    32  26  77 SW5       29.78R
HOT SPRINGS VA CLOUDY    27  27 100 W13       29.67R FOG     WCI  16
LYNCHBURG      PTCLDY    35  26  69 SW6       29.85R
DANVILLE       CLEAR     36  26  67 W7        29.87S
SOUTH BOSTON*  FAIR      33  26  77 W5        29.86S
MARTINSVILLE   CLEAR     28  28  99 CALM      29.89R
ROANOKE        CLOUDY    37  27  67 SW3       29.85R
BLACKSBURG     PTCLDY    32  27  81 CALM      29.83S
DUBLIN*        MOCLDY    34  31  86 SW7       29.82S
MARION*        MOCLDY    30  27  86 W10       29.84R WCI  21
HILLSVILLE*    MOCLDY    31  27  87 W3        29.80F
RICHLANDS*     FAIR      31  25  80 W6        29.80S
WISE*          CLEAR     32  27  80 SW10      29.81S WCI  24
ABINGDON*      CLEAR     31  28  88 CALM      29.86S
$$

MDZ021>025-VAZ099-100-251100-
SOUTHERN MARYLAND AND THE DELMARVA PENINSULA

CITY           SKY/WX    TMP DP  RH WIND       PRES   REMARKS
PATUXENT RIVER CLEAR     33  25  72 W7        29.80R
BAY BRIDGE APT   N/A     37  28  70 SW6       29.76R
LEONARDTOWN    CLEAR     34  28  80 SW6       29.81R
DOVER          CLEAR     34  29  83 SW8       29.73R
GEORGETOWN     CLEAR     35  28  75 W6        29.75R
EASTON         PTCLDY    37  31  80 W6        29.80R
CAMBRIDGE      CLEAR     37  30  75 W5        29.77R
SALISBURY      CLEAR     35  29  78 W8        29.77R
OCEAN CITY     CLEAR     34  28  79 W8        29.76R
WALLOPS ISLAND CLEAR     34  30  85 W8        29.79R
ACCOMACK*      CLEAR     34  30  86 W7        29.80R
$$

NCZ012>017-030>032-251100-
NORTH CENTRAL AND EASTERN NORTH CAROLINA

CITY           SKY/WX    TMP DP  RH WIND       PRES   REMARKS
ROANOKE RAPIDS FAIR      30  28  93 SW5       29.86S
RALEIGH        PTCLDY    31  25  78 W3        29.88R
ELIZABETH CITY CLEAR     35  28  75 W12       29.84R
AHOSKIE*       CLEAR     32  27  81 CALM      29.86S
EDENTON*       CLEAR     37  30  75 NW7G16    29.85R
CURRITUCK*     CLEAR     35  28  76 W7        29.84R
KILL DEVIL HLS CLEAR     40  32  71 W10G18    29.82R
MANTEO         CLEAR     39  30  70 W9        29.84R
CAPE HATTERAS  CLEAR     42  31  64 NW12G21   29.85R
TARBORO*       FAIR      33  28  80 CALM      29.89R
GOLDSBORO      CLEAR     33  32  97 SW3       29.89R
WASHINGTON     CLEAR     35  28  76 CALM      29.88R
GREENVILLE     CLEAR     36  30  80 W3        29.90S
NEW BERN       CLEAR     38  29  70 W5        29.91R
WILMINGTON     CLEAR     37  36  96 W5        29.92R
$$

VAZ048-251100-
ELSEWHERE

CITY           SKY/WX    TMP DP  RH WIND       PRES   REMARKS
HARRISBURG PA  CLOUDY    37  27  67 W14G21    29.68R
BALTIMORE      MOCLDY    34  27  75 SW5       29.74R
ANNAPOLIS      CLOUDY    36  27  69 CALM      29.76R
ANDREWS AFB    MOCLDY    34  27  75 S8        29.76R
PHILADELPHIA   PTCLDY    34  27  75 SW10      29.70R
HENDERSON NC   CLEAR     35  26  69 W6        29.86R
GREENSBORO     CLEAR     30  24  78 S5        29.87R
ROCKY MOUNT    CLEAR     32  27  81 S6        29.89R
$$

VAZ100-251100-
MARINE

STATION/POSITION TIME  TEMP    WIND        PRES    WAVE   SWELL
                       AIR SEA DIR/SP/G            HT/PER HT/PER
                 (UTC) (F)     (DEG/KT/KT) (MB)    (FT/S) (FT/S)
BRANDYWINE LGT   1000   37 37  290/ 17/ 21 1006.3S
CAPE MAY NJ      1000   36 38  290/ 11/ 13 1005.9R
LEWES DE         1000   36 38  280/ 13/ 16 1006.5R
15NM E FENWICK I 1000   39 42              1006.4R   4/ 8
OCEAN-CITY-INLET 1000   37 39  290/  9/ 11 1007.0R
WACHAPREAGUE VA  1000   33 40  270/  2/  4 1009.1R
THOMAS POINT MD  1000   37 37  220/ 11/ 12 1009.2R
GOOSES REEF MD   1000   37     VRB 10/ 10  1007.3R
COVE POINT MD    1000   36     270/  7/  9 1008.6R
SOLOMONS ISLAND  1000      38                N/A
BISHOPS HEAD MD  1000   38 36  280/ 16/ 18 1008.2R
PINEY POINT MD   1000          270/ 10/ 11   N/A
POTOMAC MD       1000   38     290/ 12/ 14 1008.2R
CAMBRIDGE MD     1000   38 36  250/  7/ 11 1007.9R
LEWISETTA VA     1000   35 38  260/ 10/ 11 1009.4R
RAPPAHANNOCK LGT 1000          290/ 19/ 21 1009.5R
STINGRAY PT      1000   37     300/ 16/ 17 1009.8R
YORK RVR RNG VA  1000   37     290/ 13/ 15 1008.9R
JAMESTOWN VA     1000   37     300/  8/ 10   N/A
DOMINION TERM VA 1000   36     300/  9/ 10 1010.0R
KIPTOPEKE VA     1000      46  300/ 15/ 18   N/A
CHES BAY BRIDGE  1000   39 41  260/ 17/ 19 1009.2R
CAPE HENRY VA    1000   37     260/  9/ 15 1008.3R
CHESAPEAKE LGHT  0900   40     290/ 18/ 20 1009.3R
WILLOUBY STN VA  1000   37     280/ 14/ 16 1010.2R
S CRANEY ISL VA  1000          270/  6/ 11 1009.9S
CAPE HENRY BUOY  1000      45                N/A     4/ 4   2/11
1ST LANDING BUOY 1000   40     280/ 17/ 21 1009.3R
CAPE CHARLES BUO 1000      43                N/A     3/11   2/11
OFFSHORE WE BUOY 1000      47                N/A     5/ 4   3/11
64NM E OF VA BCH 1000   44 52  310/ 17/ 21 1008.5R   7/11   3/11
DUCK PIER NC     1000   40 43  280/ 15/ 19 1009.0F
44100 DUCK FRF   1000      45                N/A     4/11   2/11
44056 DUCK FRF   1000      43                N/A     3/11   2/11
OREGON INLET NC  1000   40 47  270/  9/ 11 1010.1S
HATTERAS NC      1000   44 54  300/ 19/ 22 1010.9F
DIAMOND SHLS NC  1000   48 71  310/ 21/ 27 1009.9R   7/11   3/11



USA.gov is the U.S. government's official web portal to all federal, state and local government web resources and services.